Weather History for Cartersville, GA

Change the Weather History Date:

Wednesday, December 12, 2012

  Actual Average Record
Temperature  
Mean Temperature 43 °F 43 °F  
Max Temperature 51 °F 54 °F 73 °F (2007)
Min Temperature 35 °F 32 °F 26 °F (2005)
Degree Days  
Heating Degree Days 22 22  
Month to date heating degree days 248  
Since 1 July heating degree days 857  
Moisture  
Dew Point 33 °F    
Average Humidity 73    
Maximum Humidity 85    
Minimum Humidity 61    
Precipitation  
Precipitation 0.00 in 0.17 in 4.82 in (1961)
Month to date precipitation 1.97  
Year to date precipitation 47.66  
Sea Level Pressure  
Sea Level Pressure 30.22 in    
Wind  
Wind Speed 3 mph (North)    
Max Wind Speed 8 mph    
Max Gust Speed -    
Visibility 10 miles    
Events      
T = Trace of Precipitation, MM = Missing Value Source: NWS Daily Summary

Daily Weather History Graph

Daily Weather History Graph

Search for Another Location

Airport:

Trip Planner

Search our weather history database for the weather conditions in past years. The results will help you decide how hot, cold, wet, or windy it might be!

Date:

Astronomy

Dec. 12, 2012 Rise Set
Actual Time 7:36 AM EST 5:30 PM EST
Civil Twilight 7:08 AM EST 5:58 PM EST
Nautical Twilight 6:37 AM EST 6:29 PM EST
Astronomical Twilight 6:06 AM EST 7:00 PM EST
Moon 6:40 AM EST (12/12) 5:06 PM EST (12/12)
Length of Visible Light 10h 50m
Length of Day
9h 54m
Waning Crescent, 1% of the Moon is Illuminated
Dec 12
Waning Crescent
Dec 13
New
Dec 20
First Quarter
Dec 28
Full
Jan 4
Last Quarter

Hourly Weather History & Observations

Time (EST) Temp. Windchill Dew Point Humidity Pressure Visibility Wind Dir Wind Speed Gust Speed Precip Events Conditions
12:53 AM 37.0 °F - 30.9 °F 79% 30.17 in 10.0 mi Calm Calm - N/A   Clear
1:53 AM 37.0 °F - 30.9 °F 79% 30.18 in 10.0 mi Calm Calm - N/A   Clear
2:53 AM 36.0 °F - 30.9 °F 82% 30.18 in 10.0 mi Calm Calm - N/A   Clear
3:53 AM 36.0 °F 33.3 °F 30.9 °F 82% 30.18 in 10.0 mi North 3.5 mph - N/A   Clear
4:53 AM 36.0 °F 32.1 °F 30.9 °F 82% 30.19 in 10.0 mi North 4.6 mph - N/A   Clear
5:53 AM 35.1 °F 29.3 °F 30.9 °F 85% 30.19 in 10.0 mi North 6.9 mph - N/A   Clear
6:53 AM 35.1 °F 32.2 °F 30.9 °F 85% 30.19 in 10.0 mi North 3.5 mph - N/A   Clear
7:53 AM 35.1 °F 32.2 °F 30.0 °F 82% 30.22 in 10.0 mi NNW 3.5 mph - N/A   Clear
8:53 AM 36.0 °F - 30.9 °F 82% 30.25 in 10.0 mi Calm Calm - N/A   Clear
9:53 AM 36.0 °F 33.3 °F 30.9 °F 82% 30.25 in 10.0 mi North 3.5 mph - N/A   Clear
10:53 AM 37.9 °F 34.4 °F 32.0 °F 79% 30.25 in 10.0 mi NNE 4.6 mph - N/A   Clear
12:53 PM 43.0 °F 41.3 °F 35.1 °F 74% 30.22 in 10.0 mi NNW 3.5 mph - N/A   Clear
1:53 PM 48.0 °F - 37.0 °F 66% 30.20 in 10.0 mi North 4.6 mph - N/A   Clear
2:53 PM 51.1 °F - 37.9 °F 61% 30.19 in 10.0 mi NNE 5.8 mph - N/A   Mostly Cloudy
3:53 PM 51.1 °F - 37.9 °F 61% 30.20 in 10.0 mi North 6.9 mph - N/A   Overcast
4:53 PM 50.0 °F - 37.9 °F 63% 30.21 in 10.0 mi North 6.9 mph - N/A   Overcast
5:53 PM 48.0 °F - 35.1 °F 61% 30.22 in 10.0 mi North 8.1 mph - N/A   Overcast
6:53 PM 46.9 °F - 34.0 °F 61% 30.25 in 10.0 mi NNW 5.8 mph - N/A   Overcast
7:53 PM 46.0 °F 43.9 °F 33.1 °F 61% 30.26 in 10.0 mi NNE 4.6 mph - N/A   Overcast
8:53 PM 44.1 °F 40.1 °F 33.1 °F 65% 30.25 in 10.0 mi NNE 6.9 mph - N/A   Overcast
9:53 PM 44.1 °F - 33.1 °F 65% 30.24 in 10.0 mi Calm Calm - N/A   Overcast
10:53 PM 43.0 °F - 34.0 °F 71% 30.27 in 10.0 mi Calm Calm - N/A   Overcast
11:53 PM 43.0 °F - 34.0 °F 71% 30.27 in 10.0 mi Calm Calm - N/A   Overcast